Flag for Brazil Weather past 2 weeks in Florianópolis, Santa Catarina, Brazil

Now
66 °F

Passing clouds.


Feels Like: 66 °F
Forecast: 57 / 73 °F
Wind: No wind

Location: Florianopolis Aeroporto

Current Time: Oct 21, 2014 at 11:39:03 PM

Latest Report: Oct 21, 2014 at 11:00 PM


Visibility: N/A

Pressure: 30.21 "Hg

Humidity: 78%

Dew point: 59 °F

Location of FlorianópolisLocation

Historic Weather in Florianópolis — Graph

°F

Florianópolis temperature yesterday

Maximum temperature yesterday: 75 °F (at 12:00 PM)
Minimum temperature yesterday: 68 °F (at 3:00 AM)
Average temperature yesterday: 70 °F

Past Weeks' High & Low Weather Summary

 TemperatureHumidityPressure
High84 °F (Oct 10, 2:00 PM)100% (Oct 13, 10:00 PM)30.21 "Hg (Oct 13, 10:00 PM)
Low32 °F (Oct 13, 11:00 PM)29% (Oct 20, 11:00 AM)29.71 "Hg (Oct 19, 5:00 AM)
Average71 °F76%29.99 "Hg
* Reported Oct 6 9:00 PM — Oct 21 10:00 PM, Florianópolis, Weather by CustomWeather, © 2014

Note: Actual official high and low records may vary slightly from our data, if they occured in-between our weather recording intervals... More about our weather records

Advertising

Florianópolis weather history for previous 24 hours

 ConditionsComfort  
Time TempWeatherWind HumidityBarometerVisibility
10:00 PM
Oct 21
68 °FPassing clouds.No wind69%30.21 "HgN/A
9:00 PM68 °FPassing clouds.3 mph64%30.18 "HgN/A
8:00 PM68 °FPassing clouds.5 mph60%30.18 "HgN/A
7:00 PM68 °FPartly sunny.7 mph60%30.18 "HgN/A
6:00 PM70 °FPartly sunny.10 mph57%30.15 "HgN/A
5:00 PM70 °FPartly sunny.9 mph60%30.15 "HgN/A
4:00 PM72 °FPartly sunny.13 mph57%30.15 "HgN/A
3:00 PM73 °FPartly sunny.12 mph57%30.18 "HgN/A
2:00 PM72 °FScattered clouds.10 mph61%30.18 "HgN/A
1:00 PM72 °FScattered clouds.10 mph61%30.21 "HgN/A
12:00 PM70 °FPartly sunny.13 mph64%30.21 "HgN/A
11:00 AM70 °FBroken clouds.10 mph64%30.21 "HgN/A
10:00 AM68 °FScattered clouds.8 mph56%30.21 "HgN/A
9:00 AM66 °FScattered clouds.5 mph64%30.21 "HgN/A
8:00 AM64 °FPassing clouds.6 mph68%30.18 "HgN/A
7:00 AM63 °FScattered clouds.No wind68%30.15 "HgN/A
6:00 AM61 °FPassing clouds.2 mph68%30.12 "HgN/A
5:00 AM64 °FPassing clouds.7 mph68%30.12 "HgN/A
4:00 AM64 °FPassing clouds.9 mph68%30.12 "HgN/A
3:00 AM64 °FPassing clouds.9 mph68%30.12 "HgN/A
2:00 AM66 °FPassing clouds.13 mph64%30.12 "HgN/A
1:00 AM66 °FPassing clouds.12 mph68%30.15 "HgN/A
12:00 AM66 °FPassing clouds.12 mph68%30.15 "HgN/A
Weather by CustomWeather, © 2014

See weather overviewHow to use our weather pages